START_TIME,STEP,MOV.,P11,t_acc.,P23,t_acc.,P27,t_acc.,A4,t_acc.
1979-08-07 09:00:21.600 ,0,0,1.,4.8,1.,4.8,0.,4.8,0.,4.8
1979-08-07 09:00:26.400 ,0,0,0.,4.8,2.,4.8,0.,4.8,0.,4.8
1979-08-07 09:00:31.200 ,0,0,1.,4.8,1.,4.8,0.,4.8,0.,4.8
1979-08-07 09:00:36.000 ,0,0,1.,4.8,0.,4.8,0.,4.8,0.,4.8
1979-08-07 09:00:40.800 ,0,0,1.,4.8,1.,4.8,2.,4.8,0.,4.8
1979-08-07 09:00:45.600 ,0,0,0.,4.8,1.,4.8,2.,4.8,0.,4.8
1979-08-07 09:00:50.400 ,0,0,2.,4.8,0.,4.8,1.,4.8,0.,4.8
1979-08-07 09:00:55.200 ,0,0,0.,4.8,0.,4.8,0.,4.8,0.,4.8
1979-08-07 09:01:00.000 ,0,0,3.,4.8,0.,4.8,0.,4.8,0.,4.8
1979-08-07 09:01:04.800 ,0,0,2.,4.8,0.,4.8,0.,4.8,0.,4.8
1979-08-07 09:01:09.600 ,0,0,3.,4.8,0.,4.8,0.,4.8,0.,4.8
1979-08-07 09:01:14.400 ,0,0,0.,4.8,0.,4.8,0.,4.8,0.,4.8
1979-08-07 09:01:19.200 ,0,0,2.,4.8,0.,4.8,0.,4.8,0.,4.8
1979-08-07 09:01:24.000 ,0,0,1.,4.8,1.,4.8,0.,4.8,0.,4.8
1979-08-07 09:01:28.800 ,0,0,0.,4.8,0.,4.8,1.,4.8,0.,4.8
1979-08-07 09:01:33.600 ,1,0,1.,4.8,0.,4.8,0.,4.8,0.,4.8
1979-08-07 09:01:38.400 ,1,0,1.,4.8,0.,4.8,1.,4.8,0.,4.8
1979-08-07 09:01:43.200 ,1,0,1.,4.8,1.,4.8,2.,4.8,0.,4.8
1979-08-07 09:01:48.000 ,1,0,2.,4.8,0.,4.8,0.,4.8,0.,4.8
1979-08-07 09:01:52.800 ,1,0,1.,4.8,0.,4.8,1.,4.8,0.,4.8
1979-08-07 09:01:57.600 ,1,0,1.,4.8,1.,4.8,2.,4.8,0.,4.8
1979-08-07 09:02:02.400 ,1,0,3.,4.8,0.,4.8,0.,4.8,0.,4.8
1979-08-07 09:02:07.200 ,1,0,3.,4.8,0.,4.8,0.,4.8,0.,4.8
1979-08-07 09:02:12.000 ,1,0,2.,4.8,0.,4.8,1.,4.8,0.,4.8
1979-08-07 09:02:16.800 ,1,0,0.,4.8,1.,4.8,0.,4.8,0.,4.8
1979-08-07 09:02:45.600 ,2,0,1.,4.8,2.,4.8,1.,4.8,0.,4.8
1979-08-07 09:02:50.400 ,2,0,1.,4.8,1.,4.8,1.,4.8,0.,4.8
1979-08-07 09:02:55.200 ,2,0,0.,4.8,0.,4.8,3.,4.8,0.,4.8
1979-08-07 09:03:00.000 ,2,0,2.,4.8,0.,4.8,1.,4.8,0.,4.8
1979-08-07 09:03:04.800 ,2,0,2.,4.8,0.,4.8,0.,4.8,0.,4.8
1979-08-07 09:03:09.600 ,3,0,2.,4.8,0.,4.8,1.,4.8,0.,4.8
1979-08-07 09:03:14.400 ,3,0,0.,4.8,1.,4.8,1.,4.8,0.,4.8
1979-08-07 09:03:19.200 ,3,0,2.,4.8,0.,4.8,1.,4.8,0.,4.8
1979-08-07 09:03:24.000 ,3,0,2.,4.8,0.,4.8,0.,4.8,0.,4.8
1979-08-07 09:03:28.800 ,3,0,2.,4.8,0.,4.8,0.,4.8,0.,4.8
1979-08-07 09:03:33.600 ,3,0,0.,4.8,0.,4.8,0.,4.8,0.,4.8
1979-08-07 09:03:38.400 ,3,0,1.,4.8,0.,4.8,1.,4.8,0.,4.8
1979-08-07 09:03:43.200 ,3,0,2.,4.8,0.,4.8,0.,4.8,0.,4.8
1979-08-07 09:03:48.000 ,3,0,0.,4.8,0.,4.8,0.,4.8,0.,4.8
1979-08-07 09:03:52.800 ,3,0,2.,4.8,0.,4.8,1.,4.8,0.,4.8
1979-08-07 09:03:57.600 ,4,0,2.,4.8,0.,4.8,0.,4.8,0.,4.8
1979-08-07 09:04:02.400 ,4,0,4.,4.8,0.,4.8,1.,4.8,0.,4.8
1979-08-07 09:04:07.200 ,4,0,0.,4.8,0.,4.8,1.,4.8,0.,4.8
1979-08-07 09:04:12.000 ,4,0,2.,4.8,0.,4.8,1.,4.8,0.,4.8
1979-08-07 09:04:16.800 ,4,0,1.,4.8,0.,4.8,1.,4.8,0.,4.8
1979-08-07 09:04:21.600 ,4,0,1.,4.8,0.,4.8,0.,4.8,0.,4.8
1979-08-07 09:04:26.400 ,4,0,2.,4.8,1.,4.8,0.,4.8,0.,4.8
1979-08-07 09:04:31.200 ,4,0,6.,4.8,0.,4.8,0.,4.8,0.,4.8
1979-08-07 09:04:36.000 ,4,0,1.,4.8,0.,4.8,1.,4.8,0.,4.8
1979-08-07 09:04:40.800 ,4,0,0.,4.8,0.,4.8,0.,4.8,0.,4.8
1979-08-07 09:04:45.600 ,5,0,1.,4.8,1.,4.8,1.,4.8,0.,4.8
1979-08-07 09:04:50.400 ,5,0,1.,4.8,1.,4.8,1.,4.8,0.,4.8
1979-08-07 09:04:55.200 ,5,0,1.,4.8,0.,4.8,0.,4.8,0.,4.8
1979-08-07 09:05:00.000 ,5,0,1.,4.8,0.,4.8,0.,4.8,0.,4.8
1979-08-07 09:05:04.800 ,5,0,1.,4.8,0.,4.8,0.,4.8,0.,4.8
1979-08-07 09:05:09.600 ,5,0,1.,4.8,0.,4.8,0.,4.8,0.,4.8
1979-08-07 09:05:14.400 ,5,0,3.,4.8,1.,4.8,1.,4.8,0.,4.8
1979-08-07 09:05:19.200 ,5,0,3.,4.8,1.,4.8,0.,4.8,0.,4.8
1979-08-07 09:05:24.000 ,5,0,3.,4.8,0.,4.8,1.,4.8,0.,4.8
1979-08-07 09:05:28.800 ,5,0,2.,4.8,0.,4.8,1.,4.8,0.,4.8
1979-08-07 09:05:33.600 ,6,0,0.,4.8,0.,4.8,0.,4.8,0.,4.8
1979-08-07 09:05:38.400 ,6,0,1.,4.8,0.,4.8,0.,4.8,0.,4.8
1979-08-07 09:05:43.200 ,6,0,2.,4.8,1.,4.8,0.,4.8,0.,4.8
1979-08-07 09:05:48.000 ,6,0,0.,4.8,0.,4.8,0.,4.8,0.,4.8
1979-08-07 09:05:52.800 ,6,0,2.,4.8,1.,4.8,1.,4.8,0.,4.8
1979-08-07 09:05:57.600 ,6,0,2.,4.8,0.,4.8,0.,4.8,0.,4.8
1979-08-07 09:06:02.400 ,6,0,2.,4.8,0.,4.8,1.,4.8,0.,4.8
1979-08-07 09:06:07.200 ,6,0,1.,4.8,2.,4.8,0.,4.8,0.,4.8
1979-08-07 09:06:12.000 ,6,0,0.,4.8,0.,4.8,0.,4.8,0.,4.8
1979-08-07 09:06:16.800 ,6,0,1.,4.8,1.,4.8,0.,4.8,0.,4.8
1979-08-07 09:06:21.600 ,7,0,1.,4.8,0.,4.8,0.,4.8,0.,4.8
1979-08-07 09:06:26.400 ,7,0,0.,4.8,0.,4.8,1.,4.8,0.,4.8
1979-08-07 09:06:31.200 ,7,0,0.,4.8,1.,4.8,0.,4.8,0.,4.8
1979-08-07 09:06:36.000 ,7,0,0.,4.8,1.,4.8,0.,4.8,0.,4.8
1979-08-07 09:06:40.800 ,7,0,1.,4.8,0.,4.8,1.,4.8,0.,4.8
1979-08-07 09:06:45.600 ,7,0,0.,4.8,0.,4.8,1.,4.8,0.,4.8
1979-08-07 09:06:50.400 ,7,0,1.,4.8,0.,4.8,1.,4.8,0.,4.8
1979-08-07 09:06:55.200 ,7,0,0.,4.8,0.,4.8,1.,4.8,0.,4.8
1979-08-07 09:07:00.000 ,7,0,3.,4.8,0.,4.8,1.,4.8,0.,4.8
1979-08-07 09:07:04.800 ,7,0,1.,4.8,0.,4.8,0.,4.8,0.,4.8
1979-08-07 09:07:09.600 ,3,1,2.,4.8,0.,4.8,0.,4.8,0.,4.8
1979-08-07 09:07:14.400 ,3,1,1.,4.8,1.,4.8,0.,4.8,0.,4.8
1979-08-07 09:07:19.200 ,3,1,2.,4.8,0.,4.8,0.,4.8,0.,4.8
1979-08-07 09:07:24.000 ,3,1,0.,4.8,0.,4.8,0.,4.8,0.,4.8
1979-08-07 09:07:28.800 ,3,1,2.,4.8,0.,4.8,0.,4.8,0.,4.8
1979-08-07 09:07:33.600 ,0,1,2.,4.8,0.,4.8,0.,4.8,0.,4.8
1979-08-07 09:07:38.400 ,0,1,1.,4.8,0.,4.8,0.,4.8,0.,4.8
1979-08-07 09:07:43.200 ,0,1,3.,4.8,1.,4.8,0.,4.8,0.,4.8
1979-08-07 09:07:48.000 ,0,1,2.,4.8,0.,4.8,1.,4.8,0.,4.8
1979-08-07 09:07:52.800 ,0,1,8.,4.8,0.,4.8,0.,4.8,0.,4.8
1979-08-07 09:07:57.600 ,4,1,0.,4.8,0.,4.8,2.,4.8,0.,4.8
1979-08-07 09:08:02.400 ,4,1,3.,4.8,0.,4.8,0.,4.8,0.,4.8
1979-08-07 09:08:07.200 ,4,1,1.,4.8,0.,4.8,2.,4.8,0.,4.8
1979-08-07 09:08:12.000 ,4,1,4.,4.8,0.,4.8,0.,4.8,0.,4.8
1979-08-07 09:08:16.800 ,4,1,1.,4.8,1.,4.8,0.,4.8,0.,4.8
1979-08-07 09:08:21.600 ,7,1,3.,4.8,0.,4.8,0.,4.8,0.,4.8
1979-08-07 09:08:26.400 ,7,1,1.,4.8,0.,4.8,0.,4.8,0.,4.8
1979-08-07 09:08:31.200 ,7,1,1.,4.8,0.,4.8,0.,4.8,0.,4.8
1979-08-07 09:08:36.000 ,7,1,4.,4.8,1.,4.8,0.,4.8,0.,4.8
1979-08-07 09:08:40.800 ,7,1,1.,4.8,0.,4.8,0.,4.8,0.,4.8
1979-08-07 09:08:45.600 ,3,1,0.,4.8,0.,4.8,0.,4.8,0.,4.8
1979-08-07 09:08:50.400 ,3,1,1.,4.8,1.,4.8,0.,4.8,0.,4.8
1979-08-07 09:08:55.200 ,3,1,0.,4.8,0.,4.8,0.,4.8,0.,4.8
1979-08-07 09:09:00.000 ,3,1,0.,4.8,0.,4.8,1.,4.8,0.,4.8
1979-08-07 09:09:04.800 ,3,1,1.,4.8,1.,4.8,1.,4.8,0.,4.8
1979-08-07 09:09:09.600 ,0,1,2.,4.8,0.,4.8,1.,4.8,0.,4.8
1979-08-07 09:09:14.400 ,0,1,1.,4.8,1.,4.8,1.,4.8,0.,4.8
1979-08-07 09:09:19.200 ,0,1,2.,4.8,2.,4.8,1.,4.8,0.,4.8
1979-08-07 09:09:24.000 ,0,1,4.,4.8,0.,4.8,0.,4.8,0.,4.8
1979-08-07 09:09:28.800 ,0,1,3.,4.8,1.,4.8,0.,4.8,0.,4.8
1979-08-07 09:09:33.600 ,4,1,2.,4.8,1.,4.8,0.,4.8,0.,4.8
1979-08-07 09:09:38.400 ,4,1,5.,4.8,1.,4.8,0.,4.8,0.,4.8
1979-08-07 09:09:43.200 ,4,1,0.,4.8,0.,4.8,0.,4.8,0.,4.8
1979-08-07 09:09:48.000 ,4,1,2.,4.8,0.,4.8,0.,4.8,0.,4.8
1979-08-07 09:09:52.800 ,4,1,3.,4.8,0.,4.8,1.,4.8,0.,4.8
1979-08-07 09:09:57.600 ,7,1,1.,4.8,1.,4.8,0.,4.8,0.,4.8
1979-08-07 09:10:02.400 ,7,1,2.,4.8,1.,4.8,1.,4.8,0.,4.8
1979-08-07 09:10:07.200 ,7,1,2.,4.8,0.,4.8,0.,4.8,0.,4.8
1979-08-07 09:10:12.000 ,7,1,1.,4.8,0.,4.8,0.,4.8,0.,4.8
1979-08-07 09:10:16.800 ,7,1,1.,4.8,0.,4.8,1.,4.8,0.,4.8
1979-08-07 09:10:21.600 ,3,1,2.,4.8,0.,4.8,0.,4.8,0.,4.8
1979-08-07 09:10:26.400 ,3,1,4.,4.8,0.,4.8,0.,4.8,0.,4.8
1979-08-07 09:10:31.200 ,3,1,1.,4.8,0.,4.8,0.,4.8,0.,4.8
1979-08-07 09:10:36.000 ,3,1,2.,4.8,0.,4.8,1.,4.8,0.,4.8
1979-08-07 09:10:40.800 ,3,1,3.,4.8,0.,4.8,0.,4.8,0.,4.8
1979-08-07 09:10:45.600 ,0,1,1.,4.8,0.,4.8,0.,4.8,0.,4.8
1979-08-07 09:10:50.400 ,0,1,0.,4.8,1.,4.8,0.,4.8,0.,4.8
1979-08-07 09:10:55.200 ,0,1,1.,4.8,1.,4.8,1.,4.8,0.,4.8
1979-08-07 09:11:00.000 ,0,1,3.,4.8,0.,4.8,0.,4.8,0.,4.8
1979-08-07 09:11:04.800 ,0,1,0.,4.8,0.,4.8,1.,4.8,0.,4.8
1979-08-07 09:11:09.600 ,4,1,2.,4.8,0.,4.8,3.,4.8,0.,4.8
1979-08-07 09:11:14.400 ,4,1,1.,4.8,0.,4.8,1.,4.8,0.,4.8
1979-08-07 09:11:19.200 ,4,1,1.,4.8,2.,4.8,0.,4.8,0.,4.8
1979-08-07 09:11:24.000 ,4,1,2.,4.8,0.,4.8,0.,4.8,0.,4.8
1979-08-07 09:11:28.800 ,4,1,1.,4.8,0.,4.8,0.,4.8,0.,4.8
1979-08-07 09:11:33.600 ,7,1,0.,4.8,1.,4.8,0.,4.8,0.,4.8
1979-08-07 09:11:38.400 ,7,1,1.,4.8,0.,4.8,0.,4.8,0.,4.8
1979-08-07 09:11:43.200 ,7,1,5.,4.8,1.,4.8,1.,4.8,1.,4.8
1979-08-07 09:11:48.000 ,7,1,3.,4.8,0.,4.8,0.,4.8,0.,4.8
1979-08-07 09:11:52.800 ,7,1,1.,4.8,1.,4.8,0.,4.8,0.,4.8
1979-08-07 09:11:57.600 ,3,1,0.,4.8,0.,4.8,2.,4.8,0.,4.8
1979-08-07 09:12:02.400 ,3,1,1.,4.8,0.,4.8,0.,4.8,0.,4.8
1979-08-07 09:12:07.200 ,3,1,1.,4.8,0.,4.8,0.,4.8,0.,4.8
1979-08-07 09:12:12.000 ,3,1,2.,4.8,0.,4.8,0.,4.8,0.,4.8
1979-08-07 09:12:16.800 ,3,1,1.,4.8,1.,4.8,0.,4.8,0.,4.8
1979-08-07 09:12:21.600 ,0,1,3.,4.8,0.,4.8,1.,4.8,0.,4.8
1979-08-07 09:12:26.400 ,0,1,0.,4.8,0.,4.8,0.,4.8,0.,4.8
1979-08-07 09:12:31.200 ,0,1,4.,4.8,1.,4.8,1.,4.8,0.,4.8
1979-08-07 09:12:36.000 ,0,1,1.,4.8,0.,4.8,2.,4.8,0.,4.8
1979-08-07 09:12:40.800 ,0,1,0.,4.8,1.,4.8,0.,4.8,0.,4.8
1979-08-07 09:12:45.600 ,4,1,2.,4.8,1.,4.8,0.,4.8,0.,4.8
1979-08-07 09:12:50.400 ,4,1,4.,4.8,0.,4.8,0.,4.8,0.,4.8
1979-08-07 09:12:55.200 ,4,1,1.,4.8,0.,4.8,0.,4.8,0.,4.8
1979-08-07 09:13:00.000 ,4,1,4.,4.8,0.,4.8,0.,4.8,0.,4.8
1979-08-07 09:13:04.800 ,4,1,3.,4.8,1.,4.8,0.,4.8,0.,4.8
1979-08-07 09:13:09.600 ,7,1,3.,4.8,0.,4.8,1.,4.8,0.,4.8
1979-08-07 09:13:14.400 ,7,1,1.,4.8,0.,4.8,1.,4.8,0.,4.8
1979-08-07 09:13:19.200 ,7,1,1.,4.8,0.,4.8,0.,4.8,0.,4.8
1979-08-07 09:13:24.000 ,7,1,0.,4.8,0.,4.8,1.,4.8,0.,4.8
1979-08-07 09:13:28.800 ,7,1,5.,4.8,0.,4.8,0.,4.8,0.,4.8
1979-08-07 09:13:33.600 ,3,1,1.,4.8,0.,4.8,1.,4.8,0.,4.8
1979-08-07 09:13:38.400 ,3,1,3.,4.8,0.,4.8,0.,4.8,0.,4.8
1979-08-07 09:13:43.200 ,3,1,2.,4.8,0.,4.8,0.,4.8,0.,4.8
1979-08-07 09:13:48.000 ,3,1,1.,4.8,0.,4.8,0.,4.8,0.,4.8
1979-08-07 09:13:52.800 ,3,1,0.,4.8,2.,4.8,0.,4.8,0.,4.8
1979-08-07 09:13:57.600 ,0,1,2.,4.8,0.,4.8,1.,4.8,0.,4.8
1979-08-07 09:14:02.400 ,0,1,1.,4.8,0.,4.8,0.,4.8,0.,4.8
1979-08-07 09:14:07.200 ,0,1,2.,4.8,0.,4.8,0.,4.8,0.,4.8
1979-08-07 09:14:12.000 ,0,1,2.,4.8,0.,4.8,0.,4.8,0.,4.8
1979-08-07 09:14:16.800 ,0,1,0.,4.8,0.,4.8,1.,4.8,0.,4.8
1979-08-07 09:14:21.600 ,4,1,1.,4.8,0.,4.8,0.,4.8,0.,4.8
1979-08-07 09:14:26.400 ,4,1,0.,4.8,1.,4.8,1.,4.8,0.,4.8
1979-08-07 09:14:31.200 ,4,1,3.,4.8,0.,4.8,0.,4.8,0.,4.8
1979-08-07 09:14:36.000 ,4,1,3.,4.8,0.,4.8,0.,4.8,0.,4.8
1979-08-07 09:14:40.800 ,4,1,4.,4.8,0.,4.8,0.,4.8,0.,4.8
1979-08-07 09:14:45.600 ,7,1,2.,4.8,1.,4.8,0.,4.8,0.,4.8
1979-08-07 09:14:50.400 ,7,1,0.,4.8,0.,4.8,3.,4.8,0.,4.8
1979-08-07 09:14:55.200 ,7,1,3.,4.8,0.,4.8,0.,4.8,0.,4.8
1979-08-07 09:15:00.000 ,7,1,1.,4.8,0.,4.8,1.,4.8,0.,4.8
1979-08-07 09:15:04.800 ,7,1,2.,4.8,1.,4.8,0.,4.8,0.,4.8
1979-08-07 09:15:09.600 ,3,1,1.,4.8,1.,4.8,1.,4.8,0.,4.8
1979-08-07 09:15:14.400 ,3,1,4.,4.8,0.,4.8,0.,4.8,0.,4.8
1979-08-07 09:15:19.200 ,3,1,3.,4.8,0.,4.8,3.,4.8,0.,4.8
1979-08-07 09:15:24.000 ,3,1,4.,4.8,0.,4.8,0.,4.8,0.,4.8
1979-08-07 09:15:28.800 ,3,1,2.,4.8,0.,4.8,1.,4.8,0.,4.8
1979-08-07 09:15:33.600 ,0,1,3.,4.8,0.,4.8,1.,4.8,0.,4.8
1979-08-07 09:15:38.400 ,0,1,0.,4.8,1.,4.8,1.,4.8,0.,4.8
1979-08-07 09:15:43.200 ,0,1,3.,4.8,0.,4.8,1.,4.8,0.,4.8
1979-08-07 09:15:48.000 ,0,1,6.,4.8,0.,4.8,0.,4.8,0.,4.8
1979-08-07 09:15:52.800 ,0,1,1.,4.8,0.,4.8,1.,4.8,0.,4.8
1979-08-07 09:15:57.600 ,4,1,2.,4.8,0.,4.8,0.,4.8,0.,4.8
1979-08-07 09:16:02.400 ,4,1,3.,4.8,0.,4.8,1.,4.8,0.,4.8
1979-08-07 09:16:07.200 ,4,1,0.,4.8,1.,4.8,0.,4.8,0.,4.8
1979-08-07 09:16:12.000 ,4,1,0.,4.8,0.,4.8,1.,4.8,0.,4.8
1979-08-07 09:16:16.800 ,4,1,2.,4.8,1.,4.8,0.,4.8,0.,4.8
1979-08-07 09:16:21.600 ,7,1,3.,4.8,0.,4.8,1.,4.8,0.,4.8
1979-08-07 09:16:26.400 ,7,1,4.,4.8,0.,4.8,0.,4.8,0.,4.8
1979-08-07 09:16:31.200 ,7,1,3.,4.8,2.,4.8,1.,4.8,0.,4.8
1979-08-07 09:16:36.000 ,7,1,1.,4.8,0.,4.8,0.,4.8,0.,4.8
1979-08-07 09:16:40.800 ,7,1,3.,4.8,0.,4.8,0.,4.8,0.,4.8
1979-08-07 09:16:45.600 ,3,1,0.,4.8,2.,4.8,0.,4.8,0.,4.8
1979-08-07 09:16:50.400 ,3,1,0.,4.8,0.,4.8,1.,4.8,0.,4.8
1979-08-07 09:16:55.200 ,3,1,3.,4.8,0.,4.8,0.,4.8,0.,4.8
1979-08-07 09:17:00.000 ,3,1,1.,4.8,1.,4.8,0.,4.8,0.,4.8
1979-08-07 09:17:04.800 ,3,1,3.,4.8,1.,4.8,0.,4.8,0.,4.8
1979-08-07 09:17:09.600 ,0,1,2.,4.8,0.,4.8,0.,4.8,0.,4.8
1979-08-07 09:17:14.400 ,0,1,2.,4.8,0.,4.8,0.,4.8,0.,4.8
1979-08-07 09:17:19.200 ,0,1,0.,4.8,1.,4.8,1.,4.8,0.,4.8
1979-08-07 09:17:24.000 ,0,1,3.,4.8,0.,4.8,0.,4.8,0.,4.8
1979-08-07 09:17:28.800 ,0,1,0.,4.8,0.,4.8,0.,4.8,0.,4.8
1979-08-07 09:17:33.600 ,0,0,2.,4.8,0.,4.8,0.,4.8,0.,4.8
1979-08-07 09:17:38.400 ,0,0,2.,4.8,0.,4.8,2.,4.8,0.,4.8
1979-08-07 09:17:43.200 ,0,0,1.,4.8,0.,4.8,0.,4.8,0.,4.8
1979-08-07 09:17:48.000 ,0,0,1.,4.8,1.,4.8,0.,4.8,0.,4.8
1979-08-07 09:17:52.800 ,0,0,1.,4.8,0.,4.8,2.,4.8,0.,4.8
1979-08-07 09:17:57.600 ,0,0,3.,4.8,0.,4.8,0.,4.8,0.,4.8
1979-08-07 09:18:02.400 ,0,0,3.,4.8,2.,4.8,0.,4.8,0.,4.8
1979-08-07 09:18:07.200 ,0,0,0.,4.8,1.,4.8,0.,4.8,0.,4.8
1979-08-07 09:18:12.000 ,0,0,3.,4.8,0.,4.8,1.,4.8,0.,4.8
1979-08-07 09:18:16.800 ,0,0,0.,4.8,1.,4.8,0.,4.8,0.,4.8
1979-08-07 09:18:21.600 ,5,0,0.,4.8,1.,4.8,1.,4.8,0.,4.8
1979-08-07 09:18:26.400 ,5,0,1.,4.8,0.,4.8,1.,4.8,0.,4.8
1979-08-07 09:18:31.200 ,5,0,3.,4.8,3.,4.8,1.,4.8,0.,4.8
1979-08-07 09:18:36.000 ,5,0,3.,4.8,0.,4.8,0.,4.8,0.,4.8
1979-08-07 09:18:40.800 ,5,0,0.,4.8,0.,4.8,0.,4.8,0.,4.8
1979-08-07 09:18:45.600 ,5,0,2.,4.8,0.,4.8,0.,4.8,0.,4.8
1979-08-07 09:18:50.400 ,5,0,1.,4.8,0.,4.8,1.,4.8,0.,4.8
1979-08-07 09:18:55.200 ,5,0,1.,4.8,2.,4.8,0.,4.8,0.,4.8
1979-08-07 09:19:00.000 ,5,0,1.,4.8,3.,4.8,1.,4.8,0.,4.8
1979-08-07 09:19:04.800 ,5,0,2.,4.8,0.,4.8,0.,4.8,0.,4.8
1979-08-07 09:19:09.600 ,4,0,0.,4.8,1.,4.8,1.,4.8,0.,4.8
1979-08-07 09:19:14.400 ,4,0,1.,4.8,1.,4.8,1.,4.8,0.,4.8
1979-08-07 09:19:19.200 ,4,0,1.,4.8,0.,4.8,1.,4.8,0.,4.8
1979-08-07 09:19:24.000 ,4,0,1.,4.8,0.,4.8,0.,4.8,1.,4.8
1979-08-07 09:19:28.800 ,4,0,2.,4.8,0.,4.8,0.,4.8,0.,4.8
1979-08-07 09:19:33.600 ,4,0,3.,4.8,0.,4.8,0.,4.8,0.,4.8
1979-08-07 09:19:38.400 ,4,0,3.,4.8,0.,4.8,0.,4.8,0.,4.8
1979-08-07 09:19:43.200 ,4,0,1.,4.8,1.,4.8,0.,4.8,0.,4.8
1979-08-07 09:19:48.000 ,4,0,3.,4.8,0.,4.8,0.,4.8,0.,4.8
1979-08-07 09:19:52.800 ,4,0,4.,4.8,0.,4.8,1.,4.8,0.,4.8
1979-08-07 09:19:57.600 ,3,0,3.,4.8,0.,4.8,0.,4.8,0.,4.8
1979-08-07 09:20:02.400 ,3,0,0.,4.8,0.,4.8,1.,4.8,0.,4.8
1979-08-07 09:20:07.200 ,3,0,3.,4.8,0.,4.8,0.,4.8,0.,4.8
1979-08-07 09:20:12.000 ,3,0,2.,4.8,0.,4.8,0.,4.8,0.,4.8
1979-08-07 09:20:16.800 ,3,0,4.,4.8,1.,4.8,0.,4.8,0.,4.8
1979-08-07 09:20:21.600 ,3,0,0.,4.8,0.,4.8,0.,4.8,0.,4.8
1979-08-07 09:20:26.400 ,3,0,1.,4.8,0.,4.8,0.,4.8,0.,4.8
1979-08-07 09:20:31.200 ,3,0,0.,4.8,0.,4.8,1.,4.8,0.,4.8
1979-08-07 09:20:36.000 ,3,0,2.,4.8,0.,4.8,0.,4.8,0.,4.8
1979-08-07 09:20:40.800 ,3,0,2.,4.8,0.,4.8,0.,4.8,0.,4.8
1979-08-07 09:20:45.600 ,2,0,0.,4.8,0.,4.8,0.,4.8,0.,4.8
1979-08-07 09:20:50.400 ,2,0,2.,4.8,0.,4.8,0.,4.8,0.,4.8
1979-08-07 09:20:55.200 ,2,0,2.,4.8,0.,4.8,2.,4.8,0.,4.8
1979-08-07 09:21:00.000 ,2,0,2.,4.8,1.,4.8,1.,4.8,0.,4.8
1979-08-07 09:21:04.800 ,2,0,5.,4.8,1.,4.8,1.,4.8,0.,4.8
1979-08-07 09:21:09.600 ,2,0,4.,4.8,0.,4.8,1.,4.8,0.,4.8
1979-08-07 09:21:14.400 ,2,0,1.,4.8,0.,4.8,0.,4.8,0.,4.8
1979-08-07 09:21:19.200 ,2,0,0.,4.8,0.,4.8,0.,4.8,0.,4.8
1979-08-07 09:21:24.000 ,2,0,0.,4.8,1.,4.8,0.,4.8,0.,4.8
1979-08-07 09:21:28.800 ,2,0,1.,4.8,2.,4.8,0.,4.8,0.,4.8
1979-08-07 09:21:33.600 ,1,0,0.,4.8,0.,4.8,1.,4.8,0.,4.8
1979-08-07 09:21:38.400 ,1,0,2.,4.8,1.,4.8,2.,4.8,0.,4.8
1979-08-07 09:21:43.200 ,1,0,2.,4.8,0.,4.8,0.,4.8,0.,4.8
1979-08-07 09:21:48.000 ,1,0,3.,4.8,0.,4.8,1.,4.8,0.,4.8
1979-08-07 09:21:52.800 ,1,0,4.,4.8,0.,4.8,0.,4.8,0.,4.8
1979-08-07 09:21:57.600 ,1,0,1.,4.8,0.,4.8,0.,4.8,0.,4.8
1979-08-07 09:22:02.400 ,1,0,2.,4.8,0.,4.8,1.,4.8,0.,4.8
1979-08-07 09:22:07.200 ,1,0,1.,4.8,0.,4.8,1.,4.8,0.,4.8
1979-08-07 09:22:12.000 ,1,0,2.,4.8,0.,4.8,1.,4.8,0.,4.8
1979-08-07 09:22:16.800 ,1,0,1.,4.8,0.,4.8,1.,4.8,0.,4.8
1979-08-07 09:22:21.600 ,0,0,2.,4.8,1.,4.8,1.,4.8,0.,4.8
1979-08-07 09:22:26.400 ,0,0,3.,4.8,1.,4.8,0.,4.8,0.,4.8
1979-08-07 09:22:31.200 ,0,0,0.,4.8,0.,4.8,0.,4.8,0.,4.8
1979-08-07 09:22:36.000 ,0,0,2.,4.8,0.,4.8,0.,4.8,0.,4.8
1979-08-07 09:22:40.800 ,0,0,6.,4.8,0.,4.8,0.,4.8,0.,4.8
1979-08-07 09:22:45.600 ,0,0,4.,4.8,0.,4.8,0.,4.8,0.,4.8
1979-08-07 09:22:50.400 ,0,0,2.,4.8,2.,4.8,0.,4.8,0.,4.8
1979-08-07 09:22:55.200 ,0,0,1.,4.8,0.,4.8,1.,4.8,0.,4.8
1979-08-07 09:23:00.000 ,0,0,2.,4.8,0.,4.8,2.,4.8,0.,4.8
1979-08-07 09:23:04.800 ,0,0,2.,4.8,0.,4.8,0.,4.8,0.,4.8
1979-08-07 09:23:09.600 ,0,0,0.,4.8,0.,4.8,0.,4.8,0.,4.8
1979-08-07 09:23:14.400 ,0,0,2.,4.8,1.,4.8,0.,4.8,0.,4.8
1979-08-07 09:23:19.200 ,0,0,2.,4.8,0.,4.8,0.,4.8,0.,4.8
1979-08-07 09:23:24.000 ,0,0,4.,4.8,0.,4.8,0.,4.8,0.,4.8
1979-08-07 09:23:28.800 ,0,0,5.,4.8,0.,4.8,0.,4.8,0.,4.8
1979-08-07 09:23:33.600 ,0,0,5.,4.8,1.,4.8,0.,4.8,0.,4.8
1979-08-07 09:23:38.400 ,0,0,2.,4.8,0.,4.8,1.,4.8,0.,4.8
1979-08-07 09:23:43.200 ,0,0,2.,4.8,3.,4.8,0.,4.8,0.,4.8
1979-08-07 09:23:48.000 ,0,0,0.,4.8,0.,4.8,0.,4.8,0.,4.8
1979-08-07 09:23:52.800 ,0,0,1.,4.8,0.,4.8,1.,4.8,0.,4.8
1979-08-07 09:23:57.600 ,1,0,4.,4.8,0.,4.8,1.,4.8,0.,4.8
1979-08-07 09:24:02.400 ,1,0,2.,4.8,0.,4.8,1.,4.8,0.,4.8
1979-08-07 09:24:07.200 ,1,0,2.,4.8,0.,4.8,0.,4.8,0.,4.8
1979-08-07 09:24:12.000 ,1,0,1.,4.8,0.,4.8,1.,4.8,0.,4.8
1979-08-07 09:24:16.800 ,1,0,1.,4.8,0.,4.8,2.,4.8,0.,4.8
1979-08-07 09:24:21.600 ,1,0,5.,4.8,0.,4.8,0.,4.8,0.,4.8
1979-08-07 09:24:26.400 ,1,0,2.,4.8,0.,4.8,0.,4.8,0.,4.8
1979-08-07 09:24:31.200 ,1,0,5.,4.8,1.,4.8,1.,4.8,0.,4.8
1979-08-07 09:24:36.000 ,1,0,2.,4.8,1.,4.8,0.,4.8,0.,4.8
1979-08-07 09:24:40.800 ,1,0,3.,4.8,1.,4.8,0.,4.8,0.,4.8
1979-08-07 09:24:45.600 ,2,0,1.,4.8,0.,4.8,0.,4.8,0.,4.8
1979-08-07 09:24:50.400 ,2,0,3.,4.8,0.,4.8,0.,4.8,0.,4.8
1979-08-07 09:24:55.200 ,2,0,0.,4.8,0.,4.8,0.,4.8,0.,4.8
1979-08-07 09:25:00.000 ,2,0,1.,4.8,0.,4.8,1.,4.8,0.,4.8
1979-08-07 09:25:04.800 ,2,0,2.,4.8,0.,4.8,1.,4.8,0.,4.8
1979-08-07 09:25:09.600 ,2,0,2.,4.8,0.,4.8,0.,4.8,0.,4.8
1979-08-07 09:25:14.400 ,2,0,4.,4.8,1.,4.8,2.,4.8,0.,4.8
1979-08-07 09:25:19.200 ,2,0,2.,4.8,0.,4.8,1.,4.8,0.,4.8
1979-08-07 09:25:24.000 ,2,0,1.,4.8,0.,4.8,0.,4.8,0.,4.8
1979-08-07 09:25:28.800 ,2,0,0.,4.8,0.,4.8,0.,4.8,0.,4.8
1979-08-07 09:25:33.600 ,3,0,3.,4.8,0.,4.8,0.,4.8,0.,4.8
1979-08-07 09:25:38.400 ,3,0,3.,4.8,0.,4.8,1.,4.8,0.,4.8
1979-08-07 09:25:43.200 ,3,0,2.,4.8,0.,4.8,1.,4.8,0.,4.8
1979-08-07 09:25:48.000 ,3,0,2.,4.8,1.,4.8,0.,4.8,0.,4.8
1979-08-07 09:25:52.800 ,3,0,0.,4.8,0.,4.8,1.,4.8,0.,4.8
1979-08-07 09:25:57.600 ,3,0,2.,4.8,0.,4.8,0.,4.8,0.,4.8
1979-08-07 09:26:02.400 ,3,0,1.,4.8,0.,4.8,0.,4.8,0.,4.8
1979-08-07 09:26:07.200 ,3,0,0.,4.8,0.,4.8,0.,4.8,0.,4.8
1979-08-07 09:26:12.000 ,3,0,5.,4.8,0.,4.8,2.,4.8,0.,4.8
1979-08-07 09:26:16.800 ,3,0,3.,4.8,0.,4.8,0.,4.8,0.,4.8
1979-08-07 09:26:21.600 ,4,0,2.,4.8,0.,4.8,0.,4.8,0.,4.8
1979-08-07 09:26:26.400 ,4,0,5.,4.8,1.,4.8,0.,4.8,0.,4.8
1979-08-07 09:26:31.200 ,4,0,0.,4.8,1.,4.8,2.,4.8,0.,4.8
1979-08-07 09:26:36.000 ,4,0,1.,4.8,0.,4.8,0.,4.8,0.,4.8
1979-08-07 09:26:40.800 ,4,0,5.,4.8,0.,4.8,1.,4.8,0.,4.8
1979-08-07 09:26:45.600 ,4,0,3.,4.8,1.,4.8,1.,4.8,0.,4.8
1979-08-07 09:26:50.400 ,4,0,0.,4.8,1.,4.8,0.,4.8,0.,4.8
1979-08-07 09:26:55.200 ,4,0,2.,4.8,1.,4.8,1.,4.8,0.,4.8
1979-08-07 09:27:00.000 ,4,0,4.,4.8,0.,4.8,1.,4.8,0.,4.8
1979-08-07 09:27:04.800 ,4,0,4.,4.8,0.,4.8,2.,4.8,0.,4.8
1979-08-07 09:27:09.600 ,5,0,2.,4.8,1.,4.8,0.,4.8,0.,4.8
1979-08-07 09:27:14.400 ,5,0,3.,4.8,0.,4.8,0.,4.8,0.,4.8
1979-08-07 09:27:19.200 ,5,0,2.,4.8,1.,4.8,2.,4.8,0.,4.8
1979-08-07 09:27:24.000 ,5,0,3.,4.8,1.,4.8,1.,4.8,0.,4.8
1979-08-07 09:27:28.800 ,5,0,0.,4.8,1.,4.8,1.,4.8,0.,4.8
1979-08-07 09:27:33.600 ,5,0,0.,4.8,1.,4.8,1.,4.8,0.,4.8
1979-08-07 09:27:38.400 ,5,0,2.,4.8,0.,4.8,0.,4.8,0.,4.8
1979-08-07 09:27:43.200 ,5,0,2.,4.8,0.,4.8,1.,4.8,0.,4.8
1979-08-07 09:27:48.000 ,5,0,0.,4.8,0.,4.8,0.,4.8,0.,4.8
1979-08-07 09:27:52.800 ,5,0,1.,4.8,0.,4.8,0.,4.8,0.,4.8
1979-08-07 09:27:57.600 ,6,0,1.,4.8,0.,4.8,1.,4.8,0.,4.8
1979-08-07 09:28:02.400 ,6,0,1.,4.8,1.,4.8,0.,4.8,0.,4.8
1979-08-07 09:28:07.200 ,6,0,4.,4.8,0.,4.8,0.,4.8,0.,4.8
1979-08-07 09:28:12.000 ,6,0,2.,4.8,0.,4.8,0.,4.8,0.,4.8
1979-08-07 09:28:16.800 ,6,0,1.,4.8,0.,4.8,0.,4.8,0.,4.8
1979-08-07 09:28:21.600 ,6,0,1.,4.8,0.,4.8,0.,4.8,0.,4.8
1979-08-07 09:28:26.400 ,6,0,4.,4.8,1.,4.8,1.,4.8,0.,4.8
1979-08-07 09:28:31.200 ,6,0,2.,4.8,0.,4.8,1.,4.8,0.,4.8
1979-08-07 09:28:36.000 ,6,0,2.,4.8,0.,4.8,0.,4.8,0.,4.8
1979-08-07 09:28:40.800 ,6,0,0.,4.8,0.,4.8,0.,4.8,0.,4.8
1979-08-07 09:28:45.600 ,7,0,3.,4.8,0.,4.8,1.,4.8,0.,4.8
1979-08-07 09:28:50.400 ,7,0,0.,4.8,0.,4.8,0.,4.8,0.,4.8
1979-08-07 09:28:55.200 ,7,0,0.,4.8,1.,4.8,1.,4.8,0.,4.8
1979-08-07 09:29:00.000 ,7,0,2.,4.8,2.,4.8,0.,4.8,0.,4.8
1979-08-07 09:29:04.800 ,7,0,2.,4.8,0.,4.8,0.,4.8,0.,4.8
1979-08-07 09:29:09.600 ,7,0,1.,4.8,0.,4.8,0.,4.8,0.,4.8
1979-08-07 09:29:14.400 ,7,0,2.,4.8,1.,4.8,0.,4.8,0.,4.8
1979-08-07 09:29:19.200 ,7,0,1.,4.8,1.,4.8,0.,4.8,0.,4.8
1979-08-07 09:29:24.000 ,7,0,2.,4.8,1.,4.8,0.,4.8,0.,4.8
1979-08-07 09:29:28.800 ,7,0,0.,4.8,0.,4.8,1.,4.8,0.,4.8
1979-08-07 09:29:33.600 ,7,0,1.,4.8,0.,4.8,0.,4.8,0.,4.8
1979-08-07 09:29:38.400 ,7,0,0.,4.8,0.,4.8,0.,4.8,0.,4.8
1979-08-07 09:29:43.200 ,7,0,2.,4.8,1.,4.8,0.,4.8,0.,4.8
1979-08-07 09:29:48.000 ,7,0,2.,4.8,1.,4.8,1.,4.8,0.,4.8
1979-08-07 09:29:52.800 ,7,0,0.,4.8,3.,4.8,0.,4.8,0.,4.8
1979-08-07 09:29:57.600 ,7,0,3.,4.8,1.,4.8,1.,4.8,0.,4.8
1979-08-07 09:30:02.400 ,7,0,1.,4.8,1.,4.8,0.,4.8,0.,4.8
1979-08-07 09:30:07.200 ,7,0,1.,4.8,0.,4.8,0.,4.8,0.,4.8
1979-08-07 09:30:12.000 ,7,0,2.,4.8,0.,4.8,2.,4.8,0.,4.8
1979-08-07 09:30:16.800 ,7,0,2.,4.8,0.,4.8,0.,4.8,0.,4.8
1979-08-07 09:30:21.600 ,6,0,1.,4.8,0.,4.8,0.,4.8,0.,4.8
1979-08-07 09:30:26.400 ,6,0,0.,4.8,1.,4.8,0.,4.8,0.,4.8
1979-08-07 09:30:31.200 ,6,0,5.,4.8,0.,4.8,0.,4.8,0.,4.8
1979-08-07 09:30:36.000 ,6,0,1.,4.8,0.,4.8,1.,4.8,0.,4.8
1979-08-07 09:30:40.800 ,6,0,3.,4.8,0.,4.8,1.,4.8,0.,4.8
1979-08-07 09:30:45.600 ,6,0,2.,4.8,1.,4.8,0.,4.8,0.,4.8
1979-08-07 09:30:50.400 ,6,0,1.,4.8,0.,4.8,0.,4.8,0.,4.8
1979-08-07 09:30:55.200 ,6,0,0.,4.8,0.,4.8,0.,4.8,0.,4.8
1979-08-07 09:31:00.000 ,6,0,1.,4.8,0.,4.8,0.,4.8,0.,4.8
1979-08-07 09:31:04.800 ,6,0,1.,4.8,0.,4.8,1.,4.8,0.,4.8
1979-08-07 09:31:09.600 ,5,0,1.,4.8,0.,4.8,2.,4.8,0.,4.8
1979-08-07 09:31:14.400 ,5,0,2.,4.8,0.,4.8,0.,4.8,0.,4.8
1979-08-07 09:31:19.200 ,5,0,5.,4.8,0.,4.8,0.,4.8,0.,4.8
1979-08-07 09:31:24.000 ,5,0,2.,4.8,0.,4.8,0.,4.8,0.,4.8
1979-08-07 09:31:28.800 ,5,0,3.,4.8,0.,4.8,2.,4.8,0.,4.8
1979-08-07 09:31:33.600 ,5,0,2.,4.8,0.,4.8,1.,4.8,0.,4.8
1979-08-07 09:31:38.400 ,5,0,1.,4.8,0.,4.8,1.,4.8,0.,4.8
1979-08-07 09:31:43.200 ,5,0,3.,4.8,0.,4.8,0.,4.8,0.,4.8
1979-08-07 09:31:48.000 ,5,0,1.,4.8,0.,4.8,1.,4.8,0.,4.8
1979-08-07 09:31:52.800 ,5,0,3.,4.8,0.,4.8,1.,4.8,0.,4.8
1979-08-07 09:31:57.600 ,4,0,0.,4.8,0.,4.8,0.,4.8,0.,4.8
1979-08-07 09:32:02.400 ,4,0,2.,4.8,0.,4.8,1.,4.8,0.,4.8
1979-08-07 09:32:07.200 ,4,0,2.,4.8,0.,4.8,1.,4.8,0.,4.8
1979-08-07 09:32:12.000 ,4,0,1.,4.8,0.,4.8,1.,4.8,1.,4.8
1979-08-07 09:32:16.800 ,4,0,3.,4.8,0.,4.8,1.,4.8,0.,4.8
1979-08-07 09:32:21.600 ,4,0,1.,4.8,0.,4.8,0.,4.8,0.,4.8
1979-08-07 09:32:26.400 ,4,0,5.,4.8,1.,4.8,0.,4.8,0.,4.8
1979-08-07 09:32:31.200 ,4,0,8.,4.8,0.,4.8,0.,4.8,0.,4.8
1979-08-07 09:32:36.000 ,4,0,1.,4.8,0.,4.8,1.,4.8,0.,4.8
1979-08-07 09:32:40.800 ,4,0,3.,4.8,0.,4.8,0.,4.8,0.,4.8
1979-08-07 09:32:45.600 ,3,0,2.,4.8,0.,4.8,0.,4.8,0.,4.8
1979-08-07 09:32:50.400 ,3,0,0.,4.8,0.,4.8,0.,4.8,0.,4.8
1979-08-07 09:32:55.200 ,3,0,1.,4.8,1.,4.8,0.,4.8,0.,4.8
1979-08-07 09:33:00.000 ,3,0,1.,4.8,0.,4.8,0.,4.8,0.,4.8
1979-08-07 09:33:04.800 ,3,0,1.,4.8,1.,4.8,0.,4.8,0.,4.8
1979-08-07 09:33:09.600 ,3,0,1.,4.8,0.,4.8,0.,4.8,0.,4.8
1979-08-07 09:33:14.400 ,3,0,2.,4.8,0.,4.8,1.,4.8,0.,4.8
1979-08-07 09:33:19.200 ,3,0,0.,4.8,1.,4.8,0.,4.8,0.,4.8
1979-08-07 09:33:24.000 ,3,0,1.,4.8,0.,4.8,1.,4.8,0.,4.8
1979-08-07 09:33:28.800 ,3,0,2.,4.8,0.,4.8,0.,4.8,0.,4.8
1979-08-07 09:33:33.600 ,2,0,2.,4.8,0.,4.8,0.,4.8,0.,4.8
1979-08-07 09:33:38.400 ,2,0,5.,4.8,0.,4.8,0.,4.8,0.,4.8